Terug naar catalogus

STARLINK-37617

ActiefCommunicatieSSO
NORAD 69314·PAYLOAD·🇺🇸 United States

Gelanceerd May 30, 2026 vanaf Vandenberg Space Force Base

Loading…

Volgende Passages (komende 24 uur)

TLE

VersSource: CelesTrak SupGP

Epoch: Sep 14, 2026, 23:30 UTC

1 69314C 26119U   26257.97965278  .00047128  00000+0  14631-2 0  2572
2 69314  97.2829 282.8436 0001088  96.0842 150.9266 15.33412612    19

Volg STARLINK-37617 in realtime met AllMySat

Download on the App Store